| time (UTC) | temp F | wind direction | speed MPH | gust MPH | rain 1hr in | rain 24hr in | rain mn in | humidity % | barometer mb |
| 20260905004502 | 73 | 200 | 0.0 | 3.0 | 0.00 | 0.01 | 0.00 | 54 | 1012.7 |
| 20260905003045 | 73 | 143 | 0.0 | 1.0 | 0.00 | 0.01 | 0.00 | 51 | 1012.6 |
| 20260905001535 | 73 | 158 | 0.0 | 5.0 | 0.00 | 0.01 | 0.00 | 53 | 1012.6 |
| 20260905000015 | 73 | 269 | 0.0 | 8.0 | 0.00 | 0.01 | 0.00 | 50 | 1012.7 |
| 20260904234508 | 74 | 248 | 0.0 | 2.0 | 0.00 | 0.12 | 0.00 | 50 | 1012.7 |
| 20260904233047 | 75 | 221 | 0.0 | 6.0 | 0.00 | 0.12 | 0.00 | 50 | 1012.5 |
| 20260904231542 | 75 | 190 | 0.0 | 4.0 | 0.00 | 0.12 | 0.00 | 49 | 1012.5 |
| 20260904230042 | 76 | 301 | 0.0 | 3.0 | 0.00 | 0.12 | 0.00 | 48 | 1012.5 |
| 20260904224526 | 76 | 245 | 0.0 | 3.0 | 0.00 | 0.13 | 0.00 | 48 | 1012.6 |
| 20260904223058 | 76 | 257 | 0.0 | 4.0 | 0.00 | 0.13 | 0.00 | 51 | 1012.6 |
| 20260904221552 | 75 | 280 | 0.0 | 6.0 | 0.00 | 0.13 | 0.00 | 51 | 1012.7 |
| 20260904220030 | 75 | 208 | 0.0 | 6.0 | 0.00 | 0.13 | 0.00 | 50 | 1012.8 |
| 20260904214525 | 77 | 269 | 0.0 | 7.0 | 0.00 | 0.13 | 0.00 | 49 | 1012.8 |
| 20260904213009 | 77 | 198 | 0.0 | 3.0 | 0.00 | 0.13 | 0.00 | 48 | 1012.7 |
| 20260904211504 | 76 | 194 | 0.0 | 3.0 | 0.00 | 0.13 | 0.00 | 51 | 1012.8 |
| 20260904210107 | 76 | 225 | 0.0 | 1.0 | 0.00 | 0.13 | 0.00 | 51 | 1012.8 |
| 20260904204555 | 77 | 116 | 0.0 | 0.0 | 0.00 | 0.13 | 0.00 | 45 | 1012.8 |
| 20260904203055 | 76 | 177 | 0.0 | 0.0 | 0.00 | 0.13 | 0.00 | 45 | 1012.9 |
| 20260904201546 | 74 | 214 | 0.0 | 0.0 | 0.00 | 0.13 | 0.00 | 50 | 1012.9 |
| 20260904200041 | 74 | 200 | 0.0 | 0.0 | 0.00 | 0.13 | 0.00 | 49 | 1013.0 |
| 20260904194539 | 73 | 124 | 0.0 | 0.0 | 0.00 | 0.13 | 0.00 | 53 | 1013.1 |
| 20260904193032 | 75 | 187 | 0.0 | 0.0 | 0.00 | 0.13 | 0.00 | 51 | 1013.4 |
| 20260904191510 | 73 | 326 | 0.0 | 0.0 | 0.00 | 0.13 | 0.00 | 53 | 1013.5 |
| 20260904190055 | 72 | 225 | 0.0 | 0.0 | 0.00 | 0.13 | 0.00 | 54 | 1013.5 |
| 20260904184546 | 71 | 276 | 0.0 | 0.0 | 0.00 | 0.21 | 0.00 | 54 | 1013.6 |
| 20260904183024 | 69 | 146 | 0.0 | 0.0 | 0.00 | 0.21 | 0.00 | 54 | 1013.7 |
| 20260904181520 | 69 | 185 | 0.0 | 0.0 | 0.00 | 0.21 | 0.00 | 52 | 1013.8 |
| 20260904180005 | 67 | 51 | 0.0 | 0.0 | 0.00 | 0.21 | 0.00 | 48 | 1013.8 |
| 20260904174559 | 67 | 255 | 0.0 | 0.0 | 0.00 | 0.27 | 0.00 | 45 | 1013.7 |
| 20260904173059 | 67 | 1 | 0.0 | 0.0 | 0.00 | 0.27 | 0.00 | 29 | 1013.6 |
| 20260904171551 | 67 | 10 | 0.0 | 0.0 | 0.00 | 0.27 | 0.00 | 5 | 1013.5 |
| 20260904170046 | 68 | 239 | 0.0 | 0.0 | 0.00 | 0.27 | 0.00 | 3 | 1013.6 |
| 20260904164541 | 64 | 290 | 0.0 | 0.0 | 0.00 | 0.28 | 0.00 | 3 | 1013.6 |
| 20260904163037 | 61 | 57 | 0.0 | 0.0 | 0.00 | 0.28 | 0.00 | 3 | 1013.5 |
| 20260904161533 | 60 | 326 | 0.0 | 0.0 | 0.00 | 0.28 | 0.00 | 3 | 1013.4 |
| 20260904160010 | 59 | 162 | 0.0 | 0.0 | 0.00 | 0.28 | 0.00 | 3 | 1013.4 |
| 20260904154506 | 59 | 154 | 0.0 | 0.0 | 0.00 | 0.30 | 0.00 | 3 | 1013.4 |
| 20260904153056 | 58 | 154 | 0.0 | 0.0 | 0.00 | 0.30 | 0.00 | 3 | 1013.4 |
| 20260904151540 | 57 | 153 | 0.0 | 0.0 | 0.00 | 0.30 | 0.00 | 3 | 1013.3 |
| 20260904150025 | 56 | 153 | 0.0 | 0.0 | 0.00 | 0.30 | 0.00 | 3 | 1013.3 |
| 20260904144513 | 55 | 153 | 0.0 | 0.0 | 0.00 | 0.30 | 0.00 | 3 | 1013.0 |
| 20260904143052 | 0 | 0.0 | 0.0 | 0.00 | 0.30 | 0.00 | 1012.8 | ||
| 20260904141553 | 0 | 0.0 | 0.0 | 0.00 | 0.30 | 0.00 | 1012.8 | ||
| 20260904140026 | 0 | 0.0 | 0.0 | 0.00 | 0.30 | 0.00 | 1012.5 | ||
| 20260904134529 | 0 | 0.0 | 0.0 | 0.00 | 0.30 | 0.00 | 1012.3 | ||
| 20260904133104 | 0 | 0.0 | 0.0 | 0.00 | 0.30 | 0.00 | 1012.1 | ||
| 20260904133002 | 0 | 0.0 | 0.0 | 0.00 | 0.30 | 0.00 | 1012.2 | ||
| 20260904131558 | 0 | 0.0 | 0.0 | 0.00 | 0.30 | 0.00 | 1012.0 | ||
| 20260904130051 | 0 | 0.0 | 0.0 | 0.00 | 0.30 | 0.00 | 1012.0 | ||
| 20260904124530 | 0 | 0.0 | 0.0 | 0.00 | 0.30 | 0.00 | 1011.9 | ||
| 20260904123019 | 0 | 0.0 | 0.0 | 0.00 | 0.30 | 0.00 | 1011.7 | ||
| 20260904121505 | 0 | 0.0 | 0.0 | 0.00 | 0.30 | 0.00 | 1011.7 | ||
| 20260904120112 | 0 | 0.0 | 0.0 | 0.00 | 0.30 | 0.00 | 1011.7 | ||
| 20260904114539 | 0 | 0.0 | 0.0 | 0.00 | 0.30 | 0.00 | 1011.6 | ||
| 20260904113038 | 0 | 0.0 | 0.0 | 0.00 | 0.30 | 0.00 | 1011.6 | ||
| 20260904111513 | 54 | 127 | 0.0 | 0.0 | 0.00 | 0.30 | 0.00 | 3 | 1011.7 |
| 20260904110009 | 54 | 127 | 0.0 | 0.0 | 0.00 | 0.30 | 0.00 | 3 | 1011.5 |
| 20260904104548 | 54 | 127 | 0.0 | 0.0 | 0.00 | 0.30 | 0.00 | 3 | 1011.4 |
| 20260904103043 | 55 | 127 | 0.0 | 0.0 | 0.00 | 0.30 | 0.00 | 3 | 1011.4 |
| 20260904101522 | 55 | 127 | 0.0 | 0.0 | 0.00 | 0.30 | 0.00 | 3 | 1011.4 |
| 20260904100018 | 55 | 129 | 0.0 | 0.0 | 0.00 | 0.30 | 0.00 | 3 | 1011.4 |
| 20260904094601 | 55 | 129 | 0.0 | 0.0 | 0.00 | 0.30 | 0.00 | 3 | 1011.4 |
| 20260904093056 | 56 | 129 | 0.0 | 0.0 | 0.00 | 0.30 | 0.00 | 3 | 1011.2 |
| 20260904091554 | 56 | 127 | 0.0 | 0.0 | 0.00 | 0.30 | 0.00 | 3 | 1011.3 |
| 20260904090051 | 56 | 129 | 0.0 | 0.0 | 0.00 | 0.30 | 0.00 | 3 | 1011.3 |
| 20260904084543 | 57 | 130 | 0.0 | 0.0 | 0.00 | 0.30 | 0.00 | 3 | 1011.4 |
| 20260904083038 | 57 | 132 | 0.0 | 0.0 | 0.00 | 0.30 | 0.00 | 3 | 1011.4 |
| 20260904081546 | 58 | 129 | 0.0 | 0.0 | 0.00 | 0.30 | 0.00 | 3 | 1011.3 |
| 20260904080030 | 58 | 133 | 0.0 | 0.0 | 0.00 | 0.30 | 0.00 | 3 | 1011.3 |
| 20260904074508 | 58 | 124 | 0.0 | 0.0 | 0.00 | 0.30 | 0.00 | 3 | 1011.2 |
| 20260904073005 | 58 | 132 | 0.0 | 0.0 | 0.00 | 0.30 | 0.00 | 3 | 1011.1 |
| 20260904071547 | 59 | 211 | 0.0 | 0.0 | 0.00 | 0.30 | 0.00 | 3 | 1011.1 |
| 20260904070043 | 59 | 141 | 0.0 | 0.0 | 0.00 | 0.30 | 0.00 | 3 | 1011.0 |
| 20260904064538 | 60 | 124 | 0.0 | 0.0 | 0.00 | 0.30 | 0.30 | 3 | 1011.1 |
| 20260904063039 | 60 | 124 | 0.0 | 0.0 | 0.00 | 0.30 | 0.30 | 3 | 1011.1 |
| 20260904061540 | 60 | 141 | 0.0 | 0.0 | 0.00 | 0.30 | 0.30 | 3 | 1011.0 |
| 20260904060026 | 61 | 201 | 0.0 | 0.0 | 0.00 | 0.30 | 0.30 | 3 | 1011.2 |
| 20260904054523 | 61 | 200 | 0.0 | 0.0 | 0.00 | 0.30 | 0.30 | 3 | 1011.2 |
| 20260904053016 | 62 | 214 | 0.0 | 0.0 | 0.00 | 0.30 | 0.30 | 3 | 1011.3 |
| 20260904051601 | 62 | 214 | 0.0 | 0.0 | 0.00 | 0.30 | 0.30 | 3 | 1011.2 |
| 20260904050050 | 62 | 194 | 0.0 | 0.0 | 0.00 | 0.30 | 0.30 | 3 | 1011.3 |
| 20260904044537 | 62 | 110 | 0.0 | 0.0 | 0.00 | 0.30 | 0.30 | 3 | 1011.4 |
| 20260904043032 | 62 | 117 | 0.0 | 0.0 | 0.00 | 0.30 | 0.30 | 3 | 1011.3 |
| 20260904041503 | 62 | 217 | 0.0 | 0.0 | 0.00 | 0.30 | 0.30 | 3 | 1011.3 |
| 20260904040058 | 63 | 217 | 0.0 | 0.0 | 0.00 | 0.30 | 0.30 | 3 | 1011.2 |
| 20260904034538 | 63 | 191 | 0.0 | 0.0 | 0.00 | 0.30 | 0.30 | 3 | 1011.2 |
| 20260904033035 | 63 | 218 | 0.0 | 0.0 | 0.00 | 0.30 | 0.30 | 3 | 1011.1 |
| 20260904031529 | 63 | 166 | 0.0 | 0.0 | 0.00 | 0.30 | 0.30 | 3 | 1010.9 |
| 20260904030025 | 64 | 198 | 0.0 | 0.0 | 0.00 | 0.30 | 0.30 | 3 | 1010.9 |
| 20260904024520 | 64 | 222 | 0.0 | 0.0 | 0.00 | 0.30 | 0.30 | 3 | 1010.9 |
| 20260904023017 | 64 | 203 | 0.0 | 0.0 | 0.00 | 0.30 | 0.30 | 3 | 1010.9 |
| 20260904021521 | 65 | 203 | 0.0 | 0.0 | 0.00 | 0.30 | 0.30 | 3 | 1011.0 |
| 20260904020009 | 65 | 194 | 0.0 | 0.0 | 0.00 | 0.30 | 0.30 | 3 | 1011.2 |
| 20260904014506 | 65 | 146 | 0.0 | 0.0 | 0.00 | 0.30 | 0.30 | 3 | 1011.3 |
| 20260904013105 | 65 | 146 | 0.0 | 0.0 | 0.00 | 0.30 | 0.30 | 3 | 1011.3 |
| 20260904011503 | 65 | 172 | 0.0 | 0.0 | 0.01 | 0.30 | 0.30 | 3 | 1011.4 |
| 20260904010058 | 65 | 143 | 0.0 | 0.0 | 0.01 | 0.30 | 0.30 | 3 | 1011.5 |